Time,TemperatureF,DewpointF,PressureIn,WindDirection,WindDirectionDegrees,WindSpeedMPH,WindSpeedGustMPH,Humidity,HourlyPrecipIn,Conditions,Clouds,dailyrainin,SoftwareType,DateUTC
2013-10-21 00:07:00,40.0,32.0,29.81,WSW,246,0.0,2.0,72,0.00,,,0.00,weatherlink.com 1.10,2013-10-21 07:07:00,
2013-10-21 00:22:00,39.4,32.0,29.82,WSW,246,0.0,1.0,74,0.00,,,0.00,weatherlink.com 1.10,2013-10-21 07:22:00,
2013-10-21 00:37:00,38.9,32.0,29.82,WSW,246,0.0,0.0,76,0.00,,,0.00,weatherlink.com 1.10,2013-10-21 07:37:00,
2013-10-21 00:52:00,38.2,32.0,29.82,WSW,246,0.0,1.0,77,0.00,,,0.00,weatherlink.com 1.10,2013-10-21 07:52:00,
2013-10-21 01:07:00,37.9,31.0,29.82,SSE,160,0.0,2.0,77,0.00,,,0.00,weatherlink.com 1.10,2013-10-21 08:07:00,
2013-10-21 01:22:00,38.0,31.0,29.83,ESE,111,1.0,3.0,77,0.00,,,0.00,weatherlink.com 1.10,2013-10-21 08:22:00,
2013-10-21 01:37:00,37.8,31.0,29.84,ESE,111,0.0,1.0,77,0.00,,,0.00,weatherlink.com 1.10,2013-10-21 08:37:00,
2013-10-21 01:52:00,37.5,31.0,29.84,ESE,111,0.0,3.0,78,0.00,,,0.00,weatherlink.com 1.10,2013-10-21 08:52:00,
2013-10-21 02:07:00,37.3,31.0,29.84,SSE,156,0.0,1.0,79,0.00,,,0.00,weatherlink.com 1.10,2013-10-21 09:07:00,
2013-10-21 02:22:00,36.9,31.0,29.84,SSE,156,0.0,1.0,79,0.00,,,0.00,weatherlink.com 1.10,2013-10-21 09:22:00,
2013-10-21 02:37:00,36.3,31.0,29.84,SSE,156,0.0,1.0,81,0.00,,,0.00,weatherlink.com 1.10,2013-10-21 09:37:00,
2013-10-21 02:52:00,36.0,31.0,29.84,SSE,156,0.0,0.0,81,0.00,,,0.00,weatherlink.com 1.10,2013-10-21 09:52:00,
2013-10-21 03:07:00,35.3,30.0,29.84,SSE,156,0.0,0.0,82,0.00,,,0.00,weatherlink.com 1.10,2013-10-21 10:07:00,
2013-10-21 03:22:00,34.9,30.0,29.84,SSE,156,0.0,2.0,83,0.00,,,0.00,weatherlink.com 1.10,2013-10-21 10:22:00,
2013-10-21 03:37:00,34.6,30.0,29.84,SSE,156,0.0,0.0,84,0.00,,,0.00,weatherlink.com 1.10,2013-10-21 10:37:00,
2013-10-21 03:52:00,34.2,30.0,29.84,SSE,156,0.0,0.0,85,0.00,,,0.00,weatherlink.com 1.10,2013-10-21 10:52:00,
2013-10-21 04:07:00,33.7,30.0,29.84,SSE,156,0.0,0.0,86,0.00,,,0.00,weatherlink.com 1.10,2013-10-21 11:07:00,
2013-10-21 04:22:00,33.3,30.0,29.85,SSE,156,0.0,0.0,87,0.00,,,0.00,weatherlink.com 1.10,2013-10-21 11:22:00,
2013-10-21 04:37:00,33.1,30.0,29.85,SSE,156,0.0,1.0,88,0.00,,,0.00,weatherlink.com 1.10,2013-10-21 11:37:00,
2013-10-21 04:52:00,32.9,30.0,29.86,SSE,156,0.0,1.0,88,0.00,,,0.00,weatherlink.com 1.10,2013-10-21 11:52:00,
2013-10-21 05:07:00,33.0,30.0,29.86,SSE,156,0.0,1.0,88,0.00,,,0.00,weatherlink.com 1.10,2013-10-21 12:07:00,
2013-10-21 05:22:00,32.6,29.0,29.86,SSE,156,1.0,1.0,87,0.00,,,0.00,weatherlink.com 1.10,2013-10-21 12:22:00,
2013-10-21 05:37:00,32.3,29.0,29.87,SSE,156,0.0,0.0,87,0.00,,,0.00,weatherlink.com 1.10,2013-10-21 12:37:00,
2013-10-21 05:52:00,32.2,29.0,29.87,SSE,156,0.0,1.0,86,0.00,,,0.00,weatherlink.com 1.10,2013-10-21 12:52:00,
2013-10-21 06:08:00,31.8,28.0,29.87,SSE,156,0.0,0.0,86,0.00,,,0.00,weatherlink.com 1.10,2013-10-21 13:08:00,
2013-10-21 06:23:00,31.5,28.0,29.88,SSE,156,0.0,1.0,86,0.00,,,0.00,weatherlink.com 1.10,2013-10-21 13:23:00,
2013-10-21 06:38:00,31.2,28.0,29.88,SSE,156,0.0,1.0,87,0.00,,,0.00,weatherlink.com 1.10,2013-10-21 13:38:00,
2013-10-21 06:53:00,31.0,28.0,29.89,SSE,156,0.0,1.0,87,0.00,,,0.00,weatherlink.com 1.10,2013-10-21 13:53:00,
2013-10-21 07:08:00,31.2,28.0,29.90,SSE,156,1.0,2.0,86,0.00,,,0.00,weatherlink.com 1.10,2013-10-21 14:08:00,
2013-10-21 07:23:00,32.4,28.0,29.91,SSE,156,0.0,1.0,85,0.00,,,0.00,weatherlink.com 1.10,2013-10-21 14:23:00,
2013-10-21 07:38:00,34.3,29.0,29.91,SSE,156,0.0,0.0,80,0.00,,,0.00,weatherlink.com 1.10,2013-10-21 14:38:00,
2013-10-21 07:53:00,36.7,30.0,29.92,SSE,156,0.0,1.0,77,0.00,,,0.00,weatherlink.com 1.10,2013-10-21 14:53:00,
2013-10-21 08:08:00,40.0,32.0,29.92,SSE,156,0.0,1.0,74,0.00,,,0.00,weatherlink.com 1.10,2013-10-21 15:08:00,
2013-10-21 08:23:00,43.7,33.0,29.92,SSE,156,1.0,2.0,67,0.00,,,0.00,weatherlink.com 1.10,2013-10-21 15:23:00,
2013-10-21 08:38:00,47.6,33.0,29.92,SSE,156,1.0,2.0,58,0.00,,,0.00,weatherlink.com 1.10,2013-10-21 15:38:00,
2013-10-21 08:53:00,51.3,35.0,29.92,SSE,155,0.0,1.0,54,0.00,,,0.00,weatherlink.com 1.10,2013-10-21 15:53:00,
2013-10-21 09:08:00,54.9,31.0,29.91,SSE,155,0.0,2.0,41,0.00,,,0.00,weatherlink.com 1.10,2013-10-21 16:08:00,
2013-10-21 09:23:00,58.6,29.0,29.92,West,275,2.0,4.0,33,0.00,,,0.00,weatherlink.com 1.10,2013-10-21 16:23:00,
2013-10-21 09:38:00,61.4,30.0,29.91,West,269,1.0,5.0,30,0.00,,,0.00,weatherlink.com 1.10,2013-10-21 16:38:00,
2013-10-21 09:53:00,63.2,29.0,29.91,WSW,252,1.0,4.0,28,0.00,,,0.00,weatherlink.com 1.10,2013-10-21 16:53:00,
2013-10-21 10:08:00,64.6,30.0,29.91,WSW,254,3.0,3.0,27,0.00,,,0.00,weatherlink.com 1.10,2013-10-21 17:08:00,
2013-10-21 10:23:00,66.0,28.0,29.90,West,277,2.0,5.0,24,0.00,,,0.00,weatherlink.com 1.10,2013-10-21 17:23:00,
2013-10-21 10:38:00,67.2,29.0,29.89,West,274,1.0,3.0,24,0.00,,,0.00,weatherlink.com 1.10,2013-10-21 17:38:00,
2013-10-21 10:54:00,68.3,27.0,29.89,West,275,1.0,2.0,21,0.00,,,0.00,weatherlink.com 1.10,2013-10-21 17:54:00,
2013-10-21 11:09:00,69.7,27.0,29.88,West,275,0.0,4.0,20,0.00,,,0.00,weatherlink.com 1.10,2013-10-21 18:09:00,
2013-10-21 11:24:00,70.9,30.0,29.88,NNW,333,3.0,3.0,22,0.00,,,0.00,weatherlink.com 1.10,2013-10-21 18:24:00,
2013-10-21 11:39:00,72.2,30.0,29.87,NW,322,2.0,3.0,21,0.00,,,0.00,weatherlink.com 1.10,2013-10-21 18:39:00,
2013-10-21 11:54:00,73.3,30.0,29.87,West,274,0.0,3.0,20,0.00,,,0.00,weatherlink.com 1.10,2013-10-21 18:54:00,
2013-10-21 12:09:00,74.3,28.0,29.86,ESE,122,1.0,2.0,18,0.00,,,0.00,weatherlink.com 1.10,2013-10-21 19:09:00,
2013-10-21 12:24:00,75.5,33.0,29.85,West,265,2.0,4.0,21,0.00,,,0.00,weatherlink.com 1.10,2013-10-21 19:24:00,
2013-10-21 12:39:00,76.2,31.0,29.84,WNW,285,2.0,3.0,19,0.00,,,0.00,weatherlink.com 1.10,2013-10-21 19:39:00,
2013-10-21 12:54:00,77.1,29.0,29.83,SSE,154,0.0,4.0,17,0.00,,,0.00,weatherlink.com 1.10,2013-10-21 19:54:00,
2013-10-21 13:09:00,77.4,29.0,29.83,ESE,105,1.0,5.0,17,0.00,,,0.00,weatherlink.com 1.10,2013-10-21 20:09:00,
2013-10-21 13:24:00,77.4,31.0,29.82,WSW,239,1.0,4.0,18,0.00,,,0.00,weatherlink.com 1.10,2013-10-21 20:24:00,
2013-10-21 13:39:00,78.2,27.0,29.81,West,271,1.0,4.0,15,0.00,,,0.00,weatherlink.com 1.10,2013-10-21 20:39:00,
2013-10-21 13:54:00,78.4,25.0,29.80,ENE,57,0.0,4.0,14,0.00,,,0.00,weatherlink.com 1.10,2013-10-21 20:54:00,
2013-10-21 14:09:00,78.5,32.0,29.80,NNE,19,2.0,4.0,18,0.00,,,0.00,weatherlink.com 1.10,2013-10-21 21:09:00,
2013-10-21 14:24:00,79.4,32.0,29.80,WSW,251,6.0,7.0,18,0.00,,,0.00,weatherlink.com 1.10,2013-10-21 21:24:00,
2013-10-21 14:39:00,80.4,30.0,29.80,NW,308,3.0,4.0,16,0.00,,,0.00,weatherlink.com 1.10,2013-10-21 21:39:00,
2013-10-21 14:54:00,81.3,28.0,29.80,SSE,150,0.0,5.0,14,0.00,,,0.00,weatherlink.com 1.10,2013-10-21 21:54:00,
2013-10-21 15:09:00,81.7,30.0,29.80,South,177,0.0,6.0,15,0.00,,,0.00,weatherlink.com 1.10,2013-10-21 22:09:00,
2013-10-21 15:24:00,81.4,29.0,29.79,SE,132,1.0,7.0,15,0.00,,,0.00,weatherlink.com 1.10,2013-10-21 22:24:00,
2013-10-21 15:39:00,80.9,31.0,29.79,South,173,0.0,3.0,16,0.00,,,0.00,weatherlink.com 1.10,2013-10-21 22:39:00,
2013-10-21 15:54:00,81.3,28.0,29.79,WSW,238,0.0,3.0,14,0.00,,,0.00,weatherlink.com 1.10,2013-10-21 22:54:00,
2013-10-21 16:09:00,80.7,30.0,29.79,SW,234,2.0,4.0,16,0.00,,,0.00,weatherlink.com 1.10,2013-10-21 23:09:00,
2013-10-21 16:24:00,79.8,33.0,29.79,WSW,238,2.0,3.0,18,0.00,,,0.00,weatherlink.com 1.10,2013-10-21 23:24:00,
2013-10-21 16:39:00,78.5,33.0,29.79,WSW,240,0.0,3.0,19,0.00,,,0.00,weatherlink.com 1.10,2013-10-21 23:39:00,
2013-10-21 16:54:00,77.3,37.0,29.79,WSW,240,0.0,1.0,23,0.00,,,0.00,weatherlink.com 1.10,2013-10-21 23:54:00,
2013-10-21 17:09:00,74.9,39.0,29.79,WSW,240,0.0,0.0,27,0.00,,,0.00,weatherlink.com 1.10,2013-10-22 00:09:00,
2013-10-21 17:24:00,71.8,39.0,29.79,WSW,240,0.0,0.0,30,0.00,,,0.00,weatherlink.com 1.10,2013-10-22 00:24:00,
2013-10-21 17:39:00,68.4,39.0,29.79,WSW,240,0.0,0.0,34,0.00,,,0.00,weatherlink.com 1.10,2013-10-22 00:39:00,
2013-10-21 17:54:00,65.3,37.0,29.80,WSW,240,0.0,1.0,35,0.00,,,0.00,weatherlink.com 1.10,2013-10-22 00:54:00,
2013-10-21 18:09:00,62.8,39.0,29.80,WSW,240,0.0,0.0,41,0.00,,,0.00,weatherlink.com 1.10,2013-10-22 01:09:00,
2013-10-21 18:24:00,60.2,39.0,29.81,WSW,240,0.0,1.0,45,0.00,,,0.00,weatherlink.com 1.10,2013-10-22 01:24:00,
2013-10-21 18:39:00,58.0,38.0,29.82,WSW,240,0.0,2.0,47,0.00,,,0.00,weatherlink.com 1.10,2013-10-22 01:39:00,
2013-10-21 18:54:00,56.3,37.0,29.83,WSW,240,0.0,2.0,48,0.00,,,0.00,weatherlink.com 1.10,2013-10-22 01:54:00,
2013-10-21 19:09:00,55.0,36.0,29.84,WSW,240,0.0,1.0,49,0.00,,,0.00,weatherlink.com 1.10,2013-10-22 02:09:00,
2013-10-21 19:24:00,54.3,36.0,29.85,North,360,0.0,3.0,51,0.00,,,0.00,weatherlink.com 1.10,2013-10-22 02:24:00,
2013-10-21 19:39:00,53.3,37.0,29.86,North,360,0.0,1.0,54,0.00,,,0.00,weatherlink.com 1.10,2013-10-22 02:39:00,
2013-10-21 19:54:00,52.2,37.0,29.86,North,360,0.0,2.0,57,0.00,,,0.00,weatherlink.com 1.10,2013-10-22 02:54:00,
2013-10-21 20:09:00,51.0,36.0,29.87,North,355,0.0,2.0,58,0.00,,,0.00,weatherlink.com 1.10,2013-10-22 03:09:00,
2013-10-21 20:25:00,50.3,37.0,29.87,WNW,291,0.0,1.0,60,0.00,,,0.00,weatherlink.com 1.10,2013-10-22 03:25:00,
2013-10-21 20:40:00,49.4,37.0,29.88,WNW,291,0.0,1.0,62,0.00,,,0.00,weatherlink.com 1.10,2013-10-22 03:40:00,
2013-10-21 20:55:00,48.3,36.0,29.89,WNW,291,0.0,2.0,63,0.00,,,0.00,weatherlink.com 1.10,2013-10-22 03:55:00,
2013-10-21 21:10:00,47.5,37.0,29.89,WNW,291,2.0,2.0,66,0.00,,,0.00,weatherlink.com 1.10,2013-10-22 04:10:00,
2013-10-21 21:25:00,47.0,35.0,29.90,WNW,290,1.0,2.0,64,0.00,,,0.00,weatherlink.com 1.10,2013-10-22 04:25:00,
2013-10-21 21:40:00,47.1,36.0,29.90,WNW,290,1.0,3.0,65,0.00,,,0.00,weatherlink.com 1.10,2013-10-22 04:40:00,
2013-10-21 21:55:00,46.7,35.0,29.91,WNW,290,0.0,2.0,63,0.00,,,0.00,weatherlink.com 1.10,2013-10-22 04:55:00,
2013-10-21 22:10:00,46.0,34.0,29.91,WNW,284,0.0,1.0,64,0.00,,,0.00,weatherlink.com 1.10,2013-10-22 05:10:00,
2013-10-21 22:25:00,45.2,34.0,29.91,WNW,284,0.0,1.0,65,0.00,,,0.00,weatherlink.com 1.10,2013-10-22 05:25:00,
2013-10-21 22:40:00,44.4,34.0,29.92,WNW,284,0.0,1.0,66,0.00,,,0.00,weatherlink.com 1.10,2013-10-22 05:40:00,
2013-10-21 22:55:00,43.6,33.0,29.92,WNW,284,0.0,0.0,67,0.00,,,0.00,weatherlink.com 1.10,2013-10-22 05:55:00,
2013-10-21 23:10:00,42.9,34.0,29.92,WNW,284,0.0,0.0,70,0.00,,,0.00,weatherlink.com 1.10,2013-10-22 06:10:00,
2013-10-21 23:25:00,42.1,34.0,29.93,WNW,284,0.0,1.0,74,0.00,,,0.00,weatherlink.com 1.10,2013-10-22 06:25:00,
2013-10-21 23:40:00,41.6,34.0,29.93,WNW,284,0.0,1.0,74,0.00,,,0.00,weatherlink.com 1.10,2013-10-22 06:40:00,
2013-10-21 23:55:00,41.1,34.0,29.93,WNW,284,0.0,0.0,75,0.00,,,0.00,weatherlink.com 1.10,2013-10-22 06:55:00,